Jacksonville, IL

2:03 PM CDT on July 26, 2017 (GMT -0500)
Jacksonville Municipal

Weather History for KIJX - January, 2012

Change the Weather History Date:

Tuesday, January 24, 2012

  Actual Average (KSPI) Record (KSPI)
Temperature  
Mean Temperature 35 °F -  
Max Temperature 41 °F 36 °F 71 °F (1950)
Min Temperature 29 °F 19 °F -13 °F (1894)
Degree Days  
Heating Degree Days 30    
Moisture  
Dew Point 26 °F    
Average Humidity 71    
Maximum Humidity 85    
Minimum Humidity 54    
Precipitation  
Precipitation 0.00 in - - ()
Sea Level Pressure  
Sea Level Pressure 30.23 in    
Wind  
Wind Speed 6 mph (WNW)    
Max Wind Speed 15 mph    
Max Gust Speed 20 mph    
Visibility 10 miles    
Events      
Averages and records for this station are not official NWS values.
T = Trace of Precipitation, MM = Missing Value Source: NWS Daily Summary

Daily Weather History Graph

Daily Weather History Graph

Search for Another Location

Airport or City:

Trip Planner

Search our weather history database for the weather conditions in past years. The results will help you decide how hot, cold, wet, or windy it might be!

Date:

Astronomy

Jan. 24, 2012 Rise Set
Actual Time 7:15 AM CST 5:10 PM CST
Civil Twilight 6:46 AM CST 5:39 PM CST
Nautical Twilight 6:13 AM CST 6:12 PM CST
Astronomical Twilight 5:41 AM CST 6:44 PM CST
Moon 7:45 AM CST (1/24) 7:01 PM CST (1/24)
Length of Visible Light 10h 52m
Length of Day
9h 54m
New Moon, 2% of the Moon is Illuminated
Jan 24
New Moon
Jan 30
First Quarter
Feb 7
Full
Feb 14
Last Quarter
Feb 21
New

Hourly Weather History & Observations

Time (CST) Temp. Windchill Dew Point Humidity Pressure Visibility Wind Dir Wind Speed Gust Speed Precip Events Conditions
12:15 AM 34.2 °F 26.2 °F 25.5 °F 71% 30.06 in 10.0 mi WNW 10.4 mph - N/A   Overcast
12:35 AM 34.0 °F 27.2 °F 25.7 °F 72% 30.06 in 10.0 mi WNW 8.1 mph - N/A   Overcast
12:55 AM 34.0 °F 27.2 °F 25.5 °F 71% 30.07 in 10.0 mi WNW 8.1 mph - N/A   Overcast
1:15 AM 34.0 °F 26.6 °F 26.2 °F 73% 30.08 in 10.0 mi West 9.2 mph - N/A   Overcast
1:35 AM 33.8 °F 24.3 °F 25.3 °F 71% 30.08 in 10.0 mi WNW 13.8 mph 19.6 mph N/A   Overcast
1:55 AM 33.8 °F 23.9 °F 25.5 °F 72% 30.08 in 10.0 mi WNW 15.0 mph - N/A   Overcast
2:15 AM 33.8 °F 25.8 °F 26.6 °F 75% 30.10 in 10.0 mi West 10.4 mph - N/A   Overcast
2:35 AM 33.3 °F 25.7 °F 25.3 °F 73% 30.11 in 10.0 mi WNW 9.2 mph - N/A   Overcast
2:55 AM 33.1 °F 27.7 °F 25.9 °F 75% 30.12 in 10.0 mi West 5.8 mph - N/A   Overcast
3:15 AM 33.1 °F 26.1 °F 25.3 °F 73% 30.12 in 10.0 mi WNW 8.1 mph - N/A   Overcast
3:35 AM 32.9 °F 26.7 °F 25.5 °F 74% 30.12 in 10.0 mi West 6.9 mph - N/A   Overcast
3:55 AM 32.9 °F 25.9 °F 25.2 °F 73% 30.13 in 10.0 mi West 8.1 mph - N/A   Overcast
4:15 AM 32.0 °F 24.8 °F 25.2 °F 76% 30.13 in 10.0 mi West 8.1 mph - N/A   Overcast
4:35 AM 32.0 °F 26.4 °F 25.0 °F 75% 30.14 in 10.0 mi West 5.8 mph - N/A   Mostly Cloudy
4:55 AM 31.3 °F 26.6 °F 24.8 °F 77% 30.15 in 10.0 mi West 4.6 mph - N/A   Scattered Clouds
5:15 AM 31.8 °F 26.2 °F 24.8 °F 75% 30.16 in 10.0 mi West 5.8 mph - N/A   Mostly Cloudy
5:35 AM 32.0 °F 25.6 °F 24.6 °F 74% 30.16 in 10.0 mi West 6.9 mph - N/A   Mostly Cloudy
5:55 AM 31.5 °F 25.8 °F 24.6 °F 76% 30.18 in 10.0 mi West 5.8 mph - N/A   Mostly Cloudy
6:15 AM 30.2 °F 25.4 °F 24.8 °F 80% 30.18 in 10.0 mi West 4.6 mph - N/A   Mostly Cloudy
6:35 AM 31.1 °F 27.7 °F 24.8 °F 77% 30.20 in 10.0 mi WSW 3.5 mph - N/A   Overcast
6:55 AM 30.7 °F 27.3 °F 24.8 °F 79% 30.20 in 10.0 mi WSW 3.5 mph - N/A   Overcast
7:15 AM 29.8 °F 24.9 °F 24.8 °F 81% 30.21 in 10.0 mi SW 4.6 mph - N/A   Mostly Cloudy
7:35 AM 29.7 °F - 24.8 °F 82% 30.22 in 10.0 mi Calm Calm - N/A   Overcast
7:55 AM 30.2 °F - 24.8 °F 80% 30.22 in 10.0 mi Calm Calm - N/A   Mostly Cloudy
8:15 AM 29.7 °F - 25.3 °F 84% 30.23 in 10.0 mi Calm Calm - N/A   Overcast
8:35 AM 30.9 °F 26.2 °F 25.7 °F 81% 30.23 in 10.0 mi West 4.6 mph - N/A   Overcast
8:55 AM 31.8 °F 27.3 °F 26.1 °F 79% 30.24 in 10.0 mi West 4.6 mph - N/A   Mostly Cloudy
9:35 AM 33.4 °F 28.1 °F 25.3 °F 72% 30.25 in 10.0 mi North 5.8 mph - N/A   Clear
9:55 AM 34.3 °F 28.4 °F 25.5 °F 70% 30.26 in 10.0 mi NNW 6.9 mph - N/A   Clear
10:15 AM 34.9 °F - 25.5 °F 69% 30.28 in 10.0 mi Calm Calm - N/A   Scattered Clouds
10:35 AM 35.6 °F 32.8 °F 26.1 °F 68% 30.28 in 10.0 mi NW 3.5 mph - N/A   Scattered Clouds
10:55 AM 35.4 °F 32.6 °F 25.3 °F 67% 30.30 in 10.0 mi NW 3.5 mph - N/A   Clear
11:15 AM 36.5 °F 33.9 °F 25.5 °F 64% 30.30 in 10.0 mi WNW 3.5 mph - N/A   Clear
11:35 AM 36.9 °F 34.3 °F 25.9 °F 64% 30.30 in 10.0 mi NW 3.5 mph - N/A   Clear
11:55 AM 37.4 °F 33.8 °F 26.1 °F 64% 30.30 in 10.0 mi WSW 4.6 mph - N/A   Clear
12:15 PM 39.2 °F 35.9 °F 26.6 °F 61% 30.30 in 10.0 mi WNW 4.6 mph - N/A   Clear
12:35 PM 38.5 °F 33.4 °F 26.6 °F 62% 30.30 in 10.0 mi West 6.9 mph - N/A   Clear
12:55 PM 38.7 °F 35.2 °F 26.6 °F 62% 30.30 in 10.0 mi WNW 4.6 mph - N/A   Clear
1:15 PM 39.7 °F - 27.1 °F 61% 30.29 in 10.0 mi Calm Calm - N/A   Clear
1:35 PM 39.2 °F - 26.2 °F 60% 30.29 in 10.0 mi Calm Calm - N/A   Clear
1:55 PM 39.9 °F - 26.4 °F 59% 30.29 in 10.0 mi Calm Calm - N/A   Clear
2:15 PM 40.3 °F - 26.4 °F 58% 30.27 in 10.0 mi Calm Calm - N/A   Clear
2:35 PM 41.0 °F 37.1 °F 26.4 °F 56% 30.27 in 10.0 mi NNE 5.8 mph - N/A   Clear
2:55 PM 40.8 °F 37.8 °F 26.4 °F 57% 30.26 in 10.0 mi ENE 4.6 mph - N/A   Clear
3:15 PM 40.6 °F 38.6 °F 26.4 °F 57% 30.28 in 10.0 mi NNW 3.5 mph - N/A   Clear
3:35 PM 40.6 °F - 25.2 °F 54% 30.29 in 10.0 mi Calm Calm - N/A   Clear
3:55 PM 40.5 °F - 25.5 °F 55% 30.30 in 10.0 mi Calm Calm - N/A   Clear
4:15 PM 40.1 °F - 25.9 °F 57% 30.30 in 10.0 mi Calm Calm - N/A   Clear
4:35 PM 39.2 °F - 27.3 °F 62% 30.29 in 10.0 mi Calm Calm - N/A   Clear
4:55 PM 37.9 °F - 27.3 °F 66% 30.30 in 10.0 mi Calm Calm - N/A   Clear
5:15 PM 36.5 °F - 27.5 °F 70% 30.30 in 10.0 mi Calm Calm - N/A   Clear
5:35 PM 35.6 °F 32.8 °F 27.5 °F 72% 30.31 in 10.0 mi East 3.5 mph - N/A   Clear
5:55 PM 35.1 °F 32.2 °F 26.2 °F 70% 30.31 in 10.0 mi East 3.5 mph - N/A   Clear
6:15 PM 32.4 °F 27.9 °F 27.3 °F 82% 30.32 in 10.0 mi NE 4.6 mph - N/A   Clear
6:35 PM 34.0 °F - 26.6 °F 74% 30.34 in 10.0 mi Calm Calm - N/A   Clear
6:55 PM 32.0 °F 27.5 °F 26.1 °F 79% 30.33 in 10.0 mi ENE 4.6 mph - N/A   Clear
7:15 PM 32.0 °F 25.6 °F 26.6 °F 80% 30.32 in 10.0 mi ENE 6.9 mph - N/A   Clear
7:35 PM 32.0 °F 26.4 °F 26.6 °F 80% 30.32 in 10.0 mi East 5.8 mph - N/A   Clear
7:55 PM 31.3 °F 26.6 °F 26.4 °F 82% 30.33 in 10.0 mi ENE 4.6 mph - N/A   Clear
8:15 PM 30.4 °F 22.2 °F 26.2 °F 85% 30.31 in 10.0 mi ENE 9.2 mph - N/A   Clear
8:35 PM 31.3 °F 25.6 °F 26.4 °F 82% 30.32 in 10.0 mi East 5.8 mph - N/A   Clear
8:55 PM 30.9 °F 26.2 °F 27.0 °F 85% 30.32 in 10.0 mi East 4.6 mph - N/A   Clear
9:15 PM 30.6 °F 23.8 °F 26.4 °F 85% 30.32 in 10.0 mi East 6.9 mph - N/A   Clear
9:35 PM 30.9 °F 23.5 °F 26.6 °F 84% 30.33 in 10.0 mi SE 8.1 mph - N/A   Clear
9:55 PM 32.5 °F 26.2 °F 27.5 °F 82% 30.34 in 10.0 mi ESE 6.9 mph - N/A   Clear
10:15 PM 32.4 °F 25.3 °F 28.0 °F 84% 30.33 in 10.0 mi ESE 8.1 mph - N/A   Clear
10:35 PM 32.4 °F 26.0 °F 28.4 °F 85% 30.33 in 10.0 mi ESE 6.9 mph - N/A   Clear
10:55 PM 32.4 °F 26.9 °F 28.4 °F 85% 30.33 in 10.0 mi East 5.8 mph - N/A   Clear
11:15 PM 32.0 °F 26.4 °F 28.4 °F 87% 30.33 in 10.0 mi ESE 5.8 mph - N/A   Clear
11:35 PM 31.8 °F 27.3 °F 27.3 °F 83% 30.33 in 7.0 mi ESE 4.6 mph - N/A   Clear
11:55 PM 30.7 °F 27.3 °F 27.5 °F 88% 30.33 in 7.0 mi ESE 3.5 mph - N/A   Clear